EZS45P EBBR-LBSF

Flight info

Callsign EZS45P
Flight time 2h 6m
Altitude 35000
Route SOPOK Y863 OGLOR DCT EMGOD DCT BOMBI DCT DETEV DCT DINKU DCT BESNI DCT GOMIG DCT GOLVA DCT OBUTI DCT ADULA DCT NEVAK DCT NISVA
Aircraft A320/M-SDE3FGHIRWY/LB1

Departure

Time 2026-05-04 09:31
Airport Brussels Airport (EBBR)

Arrival

Time 2026-05-04 11:37
Airport Sofia Airport (LBSF)
Time Latitude Longitude Altitude Speed Heading
2026-05-04 08:57 50.89341 4.48605 153 ft 0 kts 70°
2026-05-04 09:26 50.89346 4.48629 153 ft 6 kts 76°
2026-05-04 09:26 50.89308 4.48688 158 ft 9 kts 158°
2026-05-04 09:26 50.89264 4.48758 164 ft 11 kts 90°
2026-05-04 09:26 50.89300 4.48917 166 ft 19 kts 69°
2026-05-04 09:27 50.89346 4.49087 166 ft 17 kts 50°
2026-05-04 09:27 50.89480 4.49155 161 ft 22 kts 15°
2026-05-04 09:27 50.89639 4.49259 153 ft 27 kts 21°
2026-05-04 09:27 50.89797 4.49325 143 ft 24 kts 14°
2026-05-04 09:28 50.89981 4.49398 132 ft 30 kts 14°
2026-05-04 09:28 50.90154 4.49473 127 ft 25 kts 14°
2026-05-04 09:28 50.90331 4.49543 125 ft 27 kts 14°
2026-05-04 09:28 50.90515 4.49618 121 ft 26 kts 14°
2026-05-04 09:29 50.90695 4.49691 124 ft 26 kts 14°
2026-05-04 09:29 50.90859 4.49758 123 ft 21 kts 16°
2026-05-04 09:29 50.90956 4.49837 121 ft 10 kts 41°
2026-05-04 09:29 50.91018 4.49907 119 ft 13 kts 27°
2026-05-04 09:30 50.91115 4.49940 116 ft 16 kts 338°
2026-05-04 09:30 50.91114 4.49786 115 ft 17 kts 245°
2026-05-04 09:30 50.90991 4.49366 117 ft 77 kts 245°
2026-05-04 09:30 50.90678 4.48283 117 ft 136 kts 245°
2026-05-04 09:31 50.90228 4.46714 214 ft 173 kts 245°
2026-05-04 09:31 50.89707 4.44927 814 ft 179 kts 245°
2026-05-04 09:31 50.89197 4.43150 1461 ft 186 kts 245°
2026-05-04 09:31 50.88631 4.41163 1753 ft 210 kts 243°
2026-05-04 09:32 50.87610 4.39401 2103 ft 233 kts 206°
2026-05-04 09:32 50.85959 4.39033 2554 ft 253 kts 167°
2026-05-04 09:34 50.78036 4.57187 6908 ft 342 kts 124°
2026-05-04 09:34 50.76661 4.60359 7406 ft 354 kts 126°
2026-05-04 09:34 50.75227 4.63599 7906 ft 365 kts 127°
2026-05-04 09:34 50.73597 4.66735 8423 ft 374 kts 131°
2026-05-04 09:35 50.71869 4.69867 8902 ft 383 kts 132°
2026-05-04 09:35 50.70124 4.73078 9454 ft 389 kts 127°
2026-05-04 09:35 50.68838 4.76863 10027 ft 396 kts 111°
2026-05-04 09:35 50.68265 4.79601 10383 ft 398 kts 109°
2026-05-04 09:37 50.62430 5.09324 14713 ft 409 kts 109°
2026-05-04 09:37 50.61589 5.13558 15221 ft 412 kts 109°
2026-05-04 09:38 50.60730 5.17875 15717 ft 415 kts 109°
2026-05-04 09:38 50.59857 5.22236 16103 ft 421 kts 109°
2026-05-04 09:38 50.58961 5.26687 16349 ft 430 kts 109°
2026-05-04 09:38 50.58042 5.31176 16768 ft 433 kts 110°
2026-05-04 09:39 50.56958 5.35614 17205 ft 434 kts 119°
2026-05-04 09:39 50.55300 5.39556 17642 ft 433 kts 133°
2026-05-04 09:39 50.53107 5.42795 18071 ft 434 kts 142°
2026-05-04 09:39 50.50771 5.45817 18472 ft 436 kts 142°
2026-05-04 09:40 50.48395 5.48799 18863 ft 437 kts 143°
2026-05-04 09:40 50.46003 5.51752 19235 ft 439 kts 144°
2026-05-04 09:40 50.43597 5.54709 19617 ft 440 kts 144°
2026-05-04 09:40 50.41182 5.57679 19977 ft 442 kts 144°
2026-05-04 09:41 50.38764 5.60667 20348 ft 443 kts 144°
2026-05-04 09:42 50.23958 5.85380 22544 ft 472 kts 111°
2026-05-04 09:43 50.23097 5.90358 22816 ft 476 kts 108°
2026-05-04 09:43 50.22264 5.95378 23101 ft 478 kts 108°
2026-05-04 09:43 50.21417 6.00407 23355 ft 480 kts 109°
2026-05-04 09:43 50.20553 6.05450 23653 ft 481 kts 109°
2026-05-04 09:44 50.19685 6.10492 23983 ft 480 kts 109°
2026-05-04 09:44 50.18880 6.15545 24320 ft 482 kts 104°
2026-05-04 09:44 50.18496 6.20763 24643 ft 487 kts 96°
2026-05-04 09:46 50.20597 6.57903 26870 ft 493 kts 88°
2026-05-04 09:46 50.20902 6.63213 27331 ft 490 kts 90°
2026-05-04 09:46 50.20910 6.68522 27603 ft 488 kts 96°
2026-05-04 09:47 50.20811 6.73827 27929 ft 488 kts 96°
2026-05-04 09:47 50.20715 6.79128 28334 ft 488 kts 96°
2026-05-04 09:49 50.20009 7.16009 30871 ft 484 kts 96°
2026-05-04 09:49 50.19896 7.21263 31137 ft 485 kts 96°
2026-05-04 09:49 50.19779 7.26534 31387 ft 486 kts 96°
2026-05-04 09:51 50.17427 7.57702 33145 ft 480 kts 102°
2026-05-04 09:51 50.16960 7.62855 33458 ft 479 kts 102°
2026-05-04 09:51 50.16490 7.67996 33796 ft 478 kts 102°
2026-05-04 09:51 50.16018 7.73123 34085 ft 477 kts 102°
2026-05-04 09:52 50.15544 7.78254 34320 ft 478 kts 102°
2026-05-04 09:52 50.15071 7.83320 34580 ft 477 kts 102°
2026-05-04 09:52 50.14595 7.88417 34906 ft 475 kts 102°
2026-05-04 09:52 50.14118 7.93543 35011 ft 478 kts 102°
2026-05-04 09:53 50.13637 7.98702 35032 ft 482 kts 102°
2026-05-04 09:53 50.12658 8.09073 35037 ft 484 kts 102°
2026-05-04 09:54 50.11657 8.19480 35043 ft 485 kts 102°
2026-05-04 09:54 50.10654 8.29793 35043 ft 484 kts 102°
2026-05-04 09:55 50.09648 8.40158 35047 ft 484 kts 102°
2026-05-04 09:55 50.08632 8.50525 35034 ft 484 kts 102°
2026-05-04 09:56 50.07596 8.60905 35036 ft 484 kts 102°
2026-05-04 09:56 50.06553 8.71279 35036 ft 484 kts 103°
2026-05-04 09:57 50.05105 8.81388 35034 ft 477 kts 115°
2026-05-04 09:57 50.02352 8.90704 35034 ft 473 kts 120°
2026-05-04 09:58 49.99484 8.99911 35044 ft 474 kts 120°
2026-05-04 09:58 49.96610 9.09122 35034 ft 474 kts 121°
2026-05-04 10:00 49.85044 9.45767 35052 ft 474 kts 121°
2026-05-04 10:02 49.70270 9.71722 35024 ft 460 kts 142°
2026-05-04 10:04 49.53924 9.95269 35032 ft 460 kts 142°
2026-05-04 10:04 49.49235 10.01979 35040 ft 461 kts 142°
2026-05-04 10:05 49.44531 10.08682 35047 ft 461 kts 142°
2026-05-04 10:05 49.39816 10.15391 35053 ft 461 kts 142°
2026-05-04 10:06 49.35102 10.22075 35060 ft 461 kts 142°
2026-05-04 10:06 49.30380 10.28748 35057 ft 462 kts 142°
2026-05-04 10:08 49.14053 10.52450 35081 ft 464 kts 140°
2026-05-04 10:08 49.09444 10.59372 35083 ft 464 kts 140°
2026-05-04 10:09 49.04809 10.66236 35068 ft 464 kts 140°
2026-05-04 10:09 49.00147 10.73071 35067 ft 465 kts 140°
2026-05-04 10:10 48.95489 10.79899 35069 ft 465 kts 140°
2026-05-04 10:10 48.90830 10.86724 35069 ft 465 kts 140°
2026-05-04 10:11 48.86166 10.93539 35065 ft 465 kts 140°
2026-05-04 10:11 48.81531 11.00298 35052 ft 465 kts 140°
2026-05-04 10:12 48.76851 11.07105 35025 ft 467 kts 140°
2026-05-04 10:12 48.72141 11.13925 35032 ft 469 kts 140°
2026-05-04 10:13 48.67406 11.20759 35037 ft 470 kts 140°
2026-05-04 10:13 48.63262 11.28490 35036 ft 480 kts 123°
2026-05-04 10:14 48.60177 11.37479 35032 ft 482 kts 120°
2026-05-04 10:16 48.47770 11.73486 35030 ft 485 kts 120°
2026-05-04 10:16 48.44643 11.82498 35057 ft 485 kts 120°
2026-05-04 10:17 48.41509 11.91497 35063 ft 485 kts 120°
2026-05-04 10:19 48.28893 12.27400 35038 ft 485 kts 120°
2026-05-04 10:19 48.25722 12.36345 35041 ft 485 kts 120°
2026-05-04 10:20 48.22549 12.45277 35045 ft 485 kts 120°
2026-05-04 10:20 48.19369 12.54200 35046 ft 485 kts 120°
2026-05-04 10:21 48.16179 12.63102 35043 ft 485 kts 121°
2026-05-04 10:21 48.12813 12.71821 35042 ft 482 kts 127°
2026-05-04 10:22 48.07132 12.84177 35043 ft 482 kts 127°
2026-05-04 10:23 48.03322 12.92441 35040 ft 482 kts 127°
2026-05-04 10:25 47.88679 13.23995 35044 ft 482 kts 127°
2026-05-04 10:25 47.84831 13.32192 35042 ft 482 kts 127°
2026-05-04 10:26 47.80988 13.40371 35044 ft 482 kts 127°
2026-05-04 10:26 47.77146 13.48551 35045 ft 482 kts 127°
2026-05-04 10:27 47.73321 13.56672 35050 ft 482 kts 127°
2026-05-04 10:27 47.69461 13.64817 35052 ft 482 kts 127°
2026-05-04 10:28 47.65592 13.72948 35050 ft 482 kts 127°
2026-05-04 10:28 47.61711 13.81070 35055 ft 482 kts 127°
2026-05-04 10:29 47.57830 13.89199 35060 ft 482 kts 127°
2026-05-04 10:29 47.53957 13.97319 35056 ft 482 kts 127°
2026-05-04 10:30 47.50068 14.05417 35068 ft 482 kts 127°
2026-05-04 10:30 47.46193 14.13447 35067 ft 482 kts 127°
2026-05-04 10:31 47.42281 14.21544 35079 ft 483 kts 127°
2026-05-04 10:32 47.28604 14.49662 35088 ft 483 kts 127°
2026-05-04 10:33 47.24664 14.57684 35089 ft 483 kts 127°
2026-05-04 10:33 47.20721 14.65698 35102 ft 483 kts 127°
2026-05-04 10:34 47.16791 14.73700 35100 ft 483 kts 127°
2026-05-04 10:34 47.12868 14.81648 35105 ft 483 kts 127°
2026-05-04 10:35 47.08918 14.89625 35094 ft 483 kts 127°
2026-05-04 10:35 47.04958 14.97584 35088 ft 483 kts 127°
2026-05-04 10:36 47.00979 15.05547 35082 ft 483 kts 127°
2026-05-04 10:36 46.97015 15.13482 35094 ft 483 kts 127°
2026-05-04 10:37 46.93067 15.21370 35093 ft 483 kts 127°
2026-05-04 10:37 46.89086 15.29312 35087 ft 483 kts 127°
2026-05-04 10:39 46.75094 15.56930 35087 ft 483 kts 127°
2026-05-04 10:40 46.71089 15.64818 35083 ft 483 kts 127°
2026-05-04 10:40 46.67041 15.72620 35077 ft 483 kts 128°
2026-05-04 10:41 46.62948 15.80314 35072 ft 483 kts 128°
2026-05-04 10:41 46.58831 15.88040 35077 ft 483 kts 128°
2026-05-04 10:42 46.54724 15.95773 35106 ft 483 kts 128°
2026-05-04 10:42 46.50618 16.03510 35105 ft 483 kts 128°
2026-05-04 10:43 46.46505 16.11233 35108 ft 483 kts 128°
2026-05-04 10:45 46.30811 16.42709 35116 ft 483 kts 121°
2026-05-04 10:45 46.27255 16.50954 35116 ft 483 kts 122°
2026-05-04 10:46 46.23591 16.59092 35122 ft 483 kts 123°
2026-05-04 10:46 46.19876 16.67178 35131 ft 483 kts 123°
2026-05-04 10:47 46.16171 16.75270 35147 ft 482 kts 123°
2026-05-04 10:47 46.12494 16.83339 35150 ft 480 kts 122°
2026-05-04 10:49 45.97838 17.15183 35141 ft 476 kts 123°
2026-05-04 10:50 45.94172 17.23110 35149 ft 475 kts 123°
2026-05-04 10:52 45.79467 17.54629 35133 ft 476 kts 123°
2026-05-04 10:52 45.75770 17.62501 35141 ft 476 kts 123°
2026-05-04 10:54 45.60937 17.93858 35147 ft 476 kts 123°
2026-05-04 10:56 45.46009 18.25075 35152 ft 476 kts 123°
2026-05-04 10:57 45.42259 18.32854 35148 ft 477 kts 123°
2026-05-04 10:57 45.38520 18.40594 35149 ft 477 kts 123°
2026-05-04 10:58 45.34751 18.48381 35150 ft 477 kts 123°
2026-05-04 10:58 45.30976 18.56150 35154 ft 477 kts 122°
2026-05-04 10:59 45.27190 18.63916 35153 ft 478 kts 123°
2026-05-04 10:59 45.23332 18.71531 35154 ft 478 kts 124°
2026-05-04 11:00 45.19335 18.79079 35150 ft 479 kts 125°
2026-05-04 11:02 45.03368 19.09274 35163 ft 479 kts 124°
2026-05-04 11:05 44.73254 19.65533 35168 ft 480 kts 124°
2026-05-04 11:06 44.69206 19.73009 35179 ft 480 kts 124°
2026-05-04 11:06 44.65149 19.80483 35171 ft 480 kts 124°
2026-05-04 11:10 44.36690 20.32382 35194 ft 480 kts 124°
2026-05-04 11:12 44.21031 20.60548 35196 ft 479 kts 124°
2026-05-04 11:12 44.16982 20.67917 35192 ft 478 kts 123°
2026-05-04 11:13 44.12977 20.75312 35187 ft 478 kts 123°
2026-05-04 11:13 44.08994 20.82649 35213 ft 478 kts 123°
2026-05-04 11:14 44.08316 20.83890 35210 ft 478 kts 123°
2026-05-04 11:16 43.88604 21.19595 33605 ft 480 kts 123°
2026-05-04 11:16 43.86573 21.23252 33338 ft 480 kts 123°
2026-05-04 11:16 43.84538 21.26918 33074 ft 479 kts 123°
2026-05-04 11:17 43.82506 21.30576 32799 ft 479 kts 123°
2026-05-04 11:17 43.80471 21.34234 32539 ft 479 kts 123°
2026-05-04 11:19 43.66061 21.59503 30647 ft 482 kts 128°
2026-05-04 11:19 43.63797 21.62935 30152 ft 482 kts 128°
2026-05-04 11:19 43.61505 21.66321 29606 ft 482 kts 129°
2026-05-04 11:19 43.59202 21.69690 29047 ft 481 kts 129°
2026-05-04 11:20 43.56908 21.73051 28500 ft 482 kts 129°
2026-05-04 11:20 43.54648 21.76385 27970 ft 482 kts 129°
2026-05-04 11:20 43.52366 21.79772 27441 ft 482 kts 129°
2026-05-04 11:20 43.50090 21.83167 26918 ft 483 kts 129°
2026-05-04 11:22 43.34082 22.06925 23377 ft 478 kts 129°
2026-05-04 11:22 43.31817 22.10249 22777 ft 474 kts 129°
2026-05-04 11:23 43.29576 22.13534 22197 ft 469 kts 129°
2026-05-04 11:23 43.27366 22.16779 21623 ft 460 kts 130°
2026-05-04 11:24 43.14611 22.35475 18370 ft 437 kts 129°
2026-05-04 11:25 43.12534 22.38512 17769 ft 436 kts 129°
2026-05-04 11:25 43.10497 22.41485 17207 ft 431 kts 130°
2026-05-04 11:25 43.08451 22.44469 16623 ft 427 kts 130°
2026-05-04 11:26 43.04419 22.50332 15518 ft 419 kts 130°
2026-05-04 11:27 42.90931 22.69849 11595 ft 384 kts 130°
2026-05-04 11:28 42.89110 22.72476 11046 ft 378 kts 130°
2026-05-04 11:28 42.87315 22.75060 10496 ft 372 kts 130°
2026-05-04 11:28 42.85547 22.77606 9960 ft 367 kts 130°
2026-05-04 11:28 42.83801 22.80120 9376 ft 363 kts 130°
2026-05-04 11:29 42.82077 22.82602 8808 ft 358 kts 130°
2026-05-04 11:29 42.80380 22.85042 8228 ft 352 kts 129°
2026-05-04 11:29 42.78704 22.87447 7710 ft 346 kts 130°
2026-05-04 11:29 42.77055 22.89803 7225 ft 341 kts 130°
2026-05-04 11:31 42.71701 23.06348 6006 ft 257 kts 91°
2026-05-04 11:33 42.70849 23.21184 4477 ft 178 kts 90°
2026-05-04 11:33 42.70754 23.22848 4259 ft 175 kts 90°
2026-05-04 11:33 42.70660 23.24482 4011 ft 172 kts 91°
2026-05-04 11:34 42.70567 23.26090 3776 ft 169 kts 91°
2026-05-04 11:34 42.70476 23.27621 3550 ft 155 kts 91°
2026-05-04 11:34 42.70393 23.29045 3338 ft 148 kts 91°
2026-05-04 11:34 42.70312 23.30453 3122 ft 150 kts 91°
2026-05-04 11:35 42.70231 23.31859 2952 ft 147 kts 91°
2026-05-04 11:35 42.70140 23.33209 2755 ft 141 kts 91°
2026-05-04 11:35 42.70045 23.34518 2617 ft 138 kts 90°
2026-05-04 11:35 42.69979 23.35810 2462 ft 136 kts 90°
2026-05-04 11:36 42.69911 23.37101 2275 ft 139 kts 90°
2026-05-04 11:36 42.69828 23.38430 2055 ft 141 kts 92°
2026-05-04 11:36 42.69763 23.39731 1835 ft 135 kts 94°
2026-05-04 11:36 42.69695 23.40949 1755 ft 118 kts 95°
2026-05-04 11:37 42.69635 23.41851 1751 ft 73 kts 93°
2026-05-04 11:37 42.69607 23.42349 1748 ft 37 kts 95°
2026-05-04 11:37 42.69556 23.42610 1750 ft 20 kts 112°
2026-05-04 11:37 42.69495 23.42724 1751 ft 13 kts 128°
2026-05-04 11:38 42.69410 23.42746 1748 ft 14 kts 220°
2026-05-04 11:38 42.69408 23.42629 1746 ft 12 kts 276°
2026-05-04 11:38 42.69415 23.42524 1753 ft 10 kts 275°
2026-05-04 11:38 42.69420 23.42431 1753 ft 9 kts 274°
2026-05-04 11:39 42.69424 23.42341 1753 ft 10 kts 272°
2026-05-04 11:39 42.69429 23.42244 1753 ft 11 kts 275°
2026-05-04 11:40 42.69409 23.41203 1753 ft 12 kts 191°
2026-05-04 11:41 42.69325 23.41179 1753 ft 13 kts 192°
2026-05-04 11:41 42.69231 23.41154 1753 ft 15 kts 191°
2026-05-04 11:41 42.69132 23.41105 1749 ft 16 kts 229°
2026-05-04 11:41 42.69096 23.40967 1749 ft 15 kts 252°
2026-05-04 11:42 42.69064 23.40832 1753 ft 17 kts 252°
2026-05-04 11:42 42.69084 23.40660 1750 ft 19 kts 288°
2026-05-04 11:42 42.69111 23.40538 1744 ft 9 kts 281°
2026-05-04 11:42 42.69072 23.40499 1746 ft 7 kts 199°
2026-05-04 11:43 42.69060 23.40495 1753 ft 0 kts 195°